カタログに戻る

COSMOS 2248

運用中軍事PO
NORAD 22649·PAYLOAD·🇷🇺 Russia

打ち上げ May 11, 1993 から Plesetsk Cosmodrome

Loading…

次のパス (今後24時間)

TLE

最新Source: Space-Track

元期: Sep 14, 2026, 10:05 UTC

1 22649U 93030D   26257.42065915  .00000008  00000-0 -16784-4 0  9991
2 22649  82.5733 254.2421 0010473  90.0248 270.2044 12.63524233537680

AllMySatでCOSMOS 2248をリアルタイム追跡

Download on the App Store